#timestamp,LO_Frequency,Hit,StdDev 
1619470815.6,286046993.6,N
1619470835.4,286047000.1,N
1619470855.3,286047002.3,N
1619470875.1,286047001.8,N
1619470876.0,286047001.8,N
1619470895.8,286047001.3,N
1619470915.7,286047002.6,N
1619470935.5,286047000.0,N
1619470955.3,286047002.8,N
1619470975.2,286047001.5,N
1619470995.0,286047015.9,Y
1619470995.9,286047015.9,P
1619471015.8,286047018.4,N
1619471035.6,286047014.3,N
1619471055.5,286047011.6,N
1619471075.3,286047012.8,N
1619471095.1,286047013.0,N
1619471115.9,286047010.5,N
1619471135.7,286047011.3,N
1619471155.5,286047012.1,N
1619471175.4,286047011.5,N
1619471195.2,286047014.4,Y
1619471215.1,286047003.5,P
1619471216.0,286047003.5,N
1619471235.8,286047006.5,N
1619471255.6,286047008.8,N
1619471275.5,286047003.5,N
1619471295.3,286047004.3,N
1619471315.2,286047003.5,N
1619471335.9,286047005.9,N
1619471355.7,286047010.0,Y
1619471375.6,286047001.2,P
1619471395.4,286046999.1,N
1619471415.2,286046993.9,N
1619471435.1,286046991.4,N
1619471436.0,286046991.4,N
1619471455.8,286046993.8,N
1619471475.7,286046993.6,N
1619471495.5,286046993.3,N
1619471515.4,286046996.6,N
1619471535.2,286047004.4,N
1619471555.0,286047003.3,N
1619471555.9,286047003.3,N
1619471575.8,286047000.2,N
1619471595.6,286047004.4,N
1619471615.5,286047003.5,N
1619471635.3,286047005.0,N
1619471655.1,286047002.6,N
1619471675.9,286047010.3,N
1619471695.7,286047010.4,N
1619471715.6,286047003.8,N
1619471735.4,286047003.5,N
1619471755.2,286047003.0,N
1619471775.1,286047005.8,N
1619471776.0,286047005.8,N
1619471795.8,286047007.6,N
1619471815.6,286047008.8,N
1619471835.5,286047008.3,N
1619471855.3,286047007.9,N
1619471875.2,286047006.4,N
1619471895.9,286047004.9,N
1619471915.8,286047012.4,N
1619471935.6,286047012.7,N
1619471955.5,286047008.6,N
1619471975.3,286047012.4,N
1619471995.2,286047008.2,N
1619472015.9,286047011.5,N
1619472035.7,286047011.2,N
1619472055.6,286047010.2,N
1619472075.4,286047009.9,N
1619472095.3,286047011.6,Y
1619472115.1,286047007.0,P
1619472116.0,286047007.0,P
1619472135.8,286047018.4,P
1619472155.7,286047027.3,Y
1619472175.5,286047012.0,P
1619472195.4,286047010.6,P
1619472215.2,286047005.6,P
1619472235.0,286047009.7,Y
1619472235.9,286047009.7,P
1619472255.8,286046995.0,P
1619472275.6,286046994.8,N
1619472295.4,286046991.8,N
1619472315.3,286046992.7,N
1619472335.1,286046994.7,N
1619472355.9,286046987.3,N
1619472375.7,286046994.4,N
1619472395.5,286046993.2,N
1619472415.4,286046992.8,N
1619472435.2,286046993.4,N
1619472455.1,286046997.6,N
1619472456.0,286046997.6,N
1619472475.8,286047000.4,N
1619472495.6,286047003.0,N
1619472515.5,286047001.1,N
1619472535.3,286046997.4,N
1619472555.1,286047002.5,N
1619472575.9,286047001.2,N
1619472595.7,286046995.3,N
1619472615.6,286046994.8,N
1619472635.4,286047000.5,N
1619472655.2,286046998.2,N
1619472675.1,286047006.4,N
1619472676.0,286047006.4,N
1619472695.8,286047009.5,N
1619472715.6,286047007.9,N
1619472735.5,286047005.1,N
1619472755.3,286047003.7,N
1619472775.2,286046998.3,N
1619472795.9,286047001.7,N
1619472815.7,286047000.6,N
1619472835.6,286047002.1,N
1619472855.4,286047006.7,N
1619472875.3,286046999.9,N
1619472895.1,286047004.6,N
1619472896.0,286047004.6,N
1619472915.8,286047003.9,N
1619472935.7,286046999.9,N
1619472955.5,286047008.2,N
1619472975.3,286047007.5,N
1619472995.2,286047006.7,N
1619473015.0,286047004.4,N
1619473015.9,286047004.4,N
1619473035.8,286047003.0,N
1619473055.6,286047010.0,N
1619473075.4,286047009.6,N
1619473095.3,286047005.8,N
1619473115.1,286047008.0,N
1619473135.8,286047004.5,N
1619473155.7,286047003.6,N
1619473175.5,286047004.1,N
1619473195.4,286047004.5,N
1619473215.2,286047007.0,N
1619473235.0,286047007.2,N
1619473235.9,286047007.2,N
1619473255.8,286047006.2,N
1619473275.6,286047005.5,N
1619473295.5,286047011.9,Y
1619473315.3,286047013.1,P
1619473335.1,286047010.9,N
1619473355.9,286047010.1,N
1619473375.7,286047008.4,N
1619473395.5,286047005.0,N
1619473415.4,286047009.8,Y
1619473435.2,286047005.6,P
1619473455.1,286047016.6,P
1619473456.0,286047016.6,P
1619473475.8,286047019.6,Y
1619473495.6,286047009.1,P
1619473515.5,286047006.3,P
1619473535.3,286047008.2,P
1619473555.2,286047001.6,N
1619473575.9,286046996.9,N
1619473595.7,286046995.5,N
1619473615.6,286046999.5,N
1619473635.4,286047001.9,N
1619473655.3,286047007.1,N
1619473675.1,286047002.9,N
1619473676.0,286047002.9,N
1619473695.8,286047000.0,N
1619473715.7,286047001.2,N
1619473735.5,286047002.2,N
1619473755.3,286047000.0,N
1619473775.2,286047003.3,N
1619473795.0,286047006.3,N
1619473795.9,286047006.3,N
1619473815.8,286047011.2,N
1619473835.6,286047008.4,N
1619473855.4,286047009.0,N
1619473875.3,286047003.8,N
1619473895.1,286047002.9,N
1619473915.8,286047000.7,N
1619473935.7,286046995.2,N
1619473955.5,286046996.1,N
1619473975.4,286046998.3,N
1619473995.2,286046998.6,N
1619474015.0,286047001.0,N
1619474015.9,286047001.0,N
1619474035.8,286046998.8,N
1619474055.6,286047004.7,N
1619474075.5,286047011.5,N
1619474095.3,286047011.4,N
1619474115.1,286047005.1,N
1619474135.9,286047003.5,N
1619474155.7,286047005.4,N
1619474175.5,286047002.9,N
1619474195.4,286047002.3,N
1619474215.2,286047001.8,N
1619474235.1,286047004.0,N
1619474236.0,286047004.0,N
1619474255.8,286047005.4,N
1619474275.6,286047000.2,N
1619474295.5,286047004.9,N
1619474315.3,286047005.0,N
1619474335.1,286047015.8,Y
1619474355.9,286047009.3,P
1619474375.7,286047009.3,P
1619474395.6,286047016.8,P
